Location: Plainartige
(45.6866°N, 1.7993°E)
Time: 13:41:47
(UTC+00:00)

BEESAT - Visible Passes

Search period start: 25 June 2022 00:00
Search period end: 05 July 2022 00:00
Orbit: 698 x 708 km, 98.6° (Epoch: 24 June)

Date Brightness Start Highest point End Pass type
(mag) Time Alt. Az. Time Alt. Az. Time Alt. Az.
25 Jun ? 20:52:07 10° N 20:56:45 52° WNW 21:01:22 10° SW visible
26 Jun ? 21:35:46 10° NNW 21:39:25 22° WNW 21:43:04 10° WSW visible
27 Jun ? 20:40:15 10° N 20:45:00 68° WNW 20:49:43 10° SSW visible
28 Jun ? 21:23:41 10° N 21:27:44 28° WNW 21:31:45 10° WSW visible
29 Jun ? 20:28:25 10° NNE 20:33:13 87° WNW 20:37:59 10° SSW visible
29 Jun ? 22:08:11 10° NNW 22:10:12 13° WNW 22:12:12 10° W visible
30 Jun ? 21:11:41 10° N 21:16:01 35° WNW 21:20:20 10° SW visible
01 Jul ? 20:16:37 10° NNE 20:21:24 73° ESE 20:26:10 10° S visible
01 Jul ? 21:55:43 10° NNW 21:58:33 16° WNW 22:01:24 10° W visible
02 Jul ? 20:59:44 10° N 21:04:17 45° WNW 21:08:49 10° SW visible
03 Jul ? 21:43:28 10° NNW 21:46:54 20° WNW 21:50:19 10° WSW visible
04 Jul ? 20:47:49 10° N 20:52:32 59° WNW 20:57:13 10° SSW visible
